TimePDT,TemperatureF,Dew PointF,Humidity,Sea Level PressureIn,VisibilityMPH,Wind Direction,Wind SpeedMPH,Gust SpeedMPH,PrecipitationIn,Events,Conditions,WindDirDegrees,DateUTC
12:53 AM,61.0,55.9,83,29.91,10.0,West,11.5,-,N/A,,Partly Cloudy,280,2013-09-22 07:53:00
1:53 AM,60.1,54.0,80,29.92,10.0,WNW,9.2,-,N/A,,Partly Cloudy,290,2013-09-22 08:53:00
2:53 AM,55.0,55.0,100,29.92,10.0,Calm,Calm,-,N/A,,Partly Cloudy,0,2013-09-22 09:53:00
3:53 AM,54.0,54.0,100,29.93,10.0,ENE,3.5,-,N/A,,Scattered Clouds,60,2013-09-22 10:53:00
4:53 AM,54.0,54.0,100,29.93,10.0,Calm,Calm,-,N/A,,Partly Cloudy,0,2013-09-22 11:53:00
5:53 AM,53.1,53.1,100,29.94,10.0,NE,3.5,-,N/A,,Mostly Cloudy,50,2013-09-22 12:53:00
6:24 AM,53.6,53.6,100,29.94,10.0,Calm,Calm,-,N/A,,Scattered Clouds,0,2013-09-22 13:24:00
6:53 AM,53.1,53.1,100,29.95,10.0,Calm,Calm,-,N/A,,Scattered Clouds,0,2013-09-22 13:53:00
7:53 AM,57.2,52.7,85,29.96,10.0,Calm,Calm,-,N/A,,Scattered Clouds,0,2013-09-22 14:53:00
8:53 AM,62.6,53.2,71,29.98,10.0,Calm,Calm,-,N/A,,Scattered Clouds,0,2013-09-22 15:53:00
9:53 AM,62.4,58.1,86,29.99,10.0,WNW,8.1,-,N/A,,Scattered Clouds,290,2013-09-22 16:53:00
10:53 AM,64.0,60.1,87,30.00,10.0,West,9.2,-,N/A,,Scattered Clouds,270,2013-09-22 17:53:00
11:53 AM,64.9,59.0,81,29.99,10.0,West,8.1,-,N/A,,Scattered Clouds,270,2013-09-22 18:53:00
12:53 PM,68.0,53.1,59,29.99,10.0,WSW,6.9,-,N/A,,Scattered Clouds,240,2013-09-22 19:53:00
1:53 PM,69.1,57.0,65,29.99,10.0,West,11.5,-,N/A,,Scattered Clouds,270,2013-09-22 20:53:00
2:53 PM,70.0,54.0,57,29.98,10.0,West,13.8,-,N/A,,Scattered Clouds,260,2013-09-22 21:53:00
3:53 PM,69.1,55.9,63,29.97,10.0,West,12.7,-,N/A,,Scattered Clouds,280,2013-09-22 22:53:00
4:53 PM,69.1,55.9,63,29.97,10.0,WNW,19.6,-,N/A,,Scattered Clouds,290,2013-09-22 23:53:00
5:53 PM,69.1,57.0,65,29.97,10.0,WNW,19.6,-,N/A,,Scattered Clouds,290,2013-09-23 00:53:00
6:53 PM,66.0,60.1,81,29.98,10.0,WNW,15.0,-,N/A,,Scattered Clouds,290,2013-09-23 01:53:00
7:53 PM,64.0,60.1,87,29.98,10.0,WNW,11.5,-,N/A,,Scattered Clouds,300,2013-09-23 02:53:00
8:53 PM,64.0,60.1,87,30.00,10.0,WNW,9.2,-,N/A,,Partly Cloudy,300,2013-09-23 03:53:00
9:53 PM,63.0,60.1,90,30.00,10.0,West,4.6,-,N/A,,Partly Cloudy,260,2013-09-23 04:53:00
10:53 PM,62.1,60.1,93,30.01,10.0,West,4.6,-,N/A,,Clear,280,2013-09-23 05:53:00
11:53 PM,60.1,59.0,96,30.01,10.0,NW,4.6,-,N/A,,Clear,320,2013-09-23 06:53:00